SCP
0 0 0 0 0 0 0 0 0 0 0 0 0 0 0 0 0 0 0 0 0 0 0 0 0 0 0 0 0 0 0 0 0 0 0 0 0 0 0 0 0 0 0
0 0 0 0 0 0 0 0 0 0 0 0 0 0 0 0 0 0 0 0 0 0 0 0 0 0 0 0 0 0 0 0 0 0 0 0 0 0 0 0 0 0 0
0 0 0 0 0 0 0 0 0 0 0 0 0 0 0 0 0 0 0 0 0 0 0 0 0 0 0 0 0 0 0 0 0 0 0 0 0 0 0 0 0 0 0
0 0 0 0 0 0 0 0 0 0 0 0 0 0 0 0 0 0 0 0 0 0 0 0 0 0 0 0 0 0 0 0 0 0 0 0 0 0 0 0 0 0 0
0 0 0 0 0 0 0 0 0 0 0 0 0 0 0 0 0 0 0 0 0 0 0 0 0 0 0 0 0 0 0 0 0 0 0 0 0 0 0 0 0 0 0
0 0 0 0 0 0 0 0 0 0 0 0 0 0 0 0 0 0 0 0 0 0 0 0 0 0 0 0 0 0 0 0 0 0 0 0 0 0 0 0 0 0 0
0 0 0 0 0 0 0 0 0 0 0 0 0 0 0 0 0 0 0 0 0 0 0 0 0 0 0 0 0 0 0 0 0 0 0 0 0 0 0 0 0 0 0
0 0 0 0 0 0 0 0 0 0 0 0 0 0 0 0 0 0 0 0 0 0 0 0 0 0 0 0 0 0 0 0 0 0 0 0 0 0 0 0 0 0 0
0 0 0 0 0 0 0 0 0 0 0 0 0 0 0 0 0 0 0 0 0 0 0 0 0 0 0 0 0 0 0 0 0 0 0 0 0 0 0 0 0 0 0
0 0 0 0 0 0 0 0 0 0 0 0 0 0 0 0 0 0 0 0 0 0 0 0 0 0 0 0 0 0 0 0 0 0 0 0 0 0 0 0 0 0 0
0 0 0 0 0 0 0 0 0 0 0 0 0 0 0 0 0 0 0 0 0 0 0 0 0 0 0 0 0 0 0 0 0 0 0 0 0 0 0 0 0 0 0
-0 0 0 -0 0 0 0 0 0 0 0 0 0 0 0 0 0 0 0 0 0 0 0 0 0 0 0 0 0 0 0 0 0 0 0 0 0 0 0 0 0 0 0
-0 -0 -0 -0 -0 0 0 0 0 0 0 0 0 0 0 0 0 0 0 0 0 0 0 0 0 0 0 0 0 0 0 0 0 0 0 0 0 0 0 0 0 0 0
-0 -0 -0 0 0 0 0 0 0 0 0 0 0 0 0 0 0 0 0 0 0 0 0 0 0 0 0 0 0 0 0 0 0 0 0 0 0 0 0 0 0 0 0
0 0 0 0 0 0 0 0 0 0 0 0 0 0 0 0 0 0 0 0 0 0 0 0 0 0 0 0 0 0 0 0 0 0 0 0 0 0 0 0 0 0 0
0 0 0 0 0 0 0 0 0 0 0 0 0 0 0 0 0 0 0 0 0 0 0 0 0 0 0 0 0 0 0 0 0 0 0 0 0 0 0 0 0 0 0
0 0 0 0 0 0 0 0 0 0 0 0 0 0 0 0 0 0 0 0 0 0 0 0 0 0 0 0 0 0 0 0 0 0 0 0 0 0 0 0 0 0 0
0 0 0 0 0 0 -0 -0 -0 -0 -0 -0 -0 0 0 0 0 0 0 0 0 0 0 0 0 0 0 0 0 0 0 0 0 0 0 0 0 0 0 0 0 0 0
0 0 0 0 -0 -0 -0 -0 -0 -0 -0 -0 -0 -0 0 0 0 0 0 0 0 0 0 0 0 0 0 0 0 0 0 0 0 0 0 0 0 0 0 0 0 0 0
0 -0 -0 -0 -0 -0 -0 -0 -0 -0 -0 -0 -0 -0 -0 0 0 0 0 0 0 0 0 0 0 0 0 0 0 0 0 0 0 0 0 0 0 0 0 0 0 0 0
-0 -0 -0 -0 -0 -0 -0 -0 -0 -0 -0 -0 -0 -0 -0 0 0 0 0 0 0 0 0 0 0 0 0 0 0 0 0 0 0 0 0 0 0 0 0 0 0 0 0
-0 -0 -0 -0 -0 -0 -0 -0 -0 -0 -0 -0 -0 -0 -0 -0 -0 0 0 0 0 0 0 0 0 0 0 0 0 0 0 0 0 0 0 0 0 0 0 0 0 0 0
-0 -0 -0 -0 -0 -0 -0 -0 -0 -0 -0 -0 -0 -0 -0 -0 -0 -0 -0 0 0 0 0 0 0 0 0 0 0 0 0 0 0 0 0 0 0 0 0 0 0 0 0
-0 -0 -0 -0 -0 -0 -0 -0 0 0 -0 -0 -0 -0 -0 -0 -0 -0 -0 0 0 0 0 0 0 0 0 0 0 0 0 0 0 0 0 0 0 0 0 0 0 0 0
-0 -0 -0 -0 -0 0 -0 0 0 0 0 0 -0 -0 -0 -0 -0 -0 0 0 0 0 0 0 0 0 0 0 0 0 0 0 0 0 0 0 0 0 0 0 0 0 0
0 0 0 0 0 0 0 0 0 0 0 0 0 -0 -0 -0 -0 -0 -0 -0 -0 0 0 0 0 0 0 0 0 0 0 0 0 0 0 0 0 0 0 0 0 0 0
Wind_Speed_500mb
50 53 41 68 58 51 50 56 61 68 67 69 67 75 79 76 73 70 67 66 66 62 60 60 61 59 60 57 53 50 49 49 45 43 40 43 48 53 53 45 41 33 29
56 54 58 54 66 61 58 59 64 68 68 69 67 71 77 80 77 73 71 70 72 67 66 65 66 67 65 63 61 58 57 55 52 53 42 40 42 51 42 38 32 27 29
66 64 61 72 67 70 66 68 65 71 76 74 69 69 71 79 82 84 84 83 76 73 68 68 68 70 70 70 67 65 64 63 58 59 53 21 28 20 25 28 29 29 34
99 91 79 72 69 75 74 71 67 71 74 79 80 80 78 79 80 87 90 90 85 81 78 74 73 72 71 74 72 71 71 68 68 62 67 67 61 29 21 18 24 32 37
67 72 78 74 71 72 69 74 73 73 72 82 85 87 87 83 78 82 86 86 86 85 84 82 80 80 79 79 76 75 76 76 75 75 73 71 71 68 64 63 55 54 53
8 4 12 10 21 21 21 50 78 76 74 76 81 88 92 88 87 88 90 88 84 83 84 86 85 84 86 87 85 81 80 79 78 80 77 78 76 75 74 74 75 68 63
38 34 20 10 5 13 16 21 29 49 69 76 80 88 93 95 94 94 94 92 89 89 87 84 85 86 87 88 89 91 90 87 87 84 85 78 81 77 73 65 69 70 66
41 41 32 30 33 25 21 14 17 37 48 61 76 83 90 95 100 100 99 97 95 92 89 86 83 83 83 84 87 91 94 94 93 91 89 87 84 81 77 79 74 70 71
32 33 34 37 41 36 27 23 20 22 25 44 59 70 79 86 97 101 103 101 99 97 93 91 89 84 81 80 81 85 90 95 96 96 94 93 89 86 82 81 79 81 59
27 26 34 41 41 37 34 30 32 30 29 28 41 56 66 75 82 89 99 102 101 98 94 92 90 86 85 82 80 81 82 89 92 94 94 93 89 86 83 78 75 82 87
14 23 40 41 44 36 36 35 36 35 30 29 29 35 51 60 66 78 86 92 94 98 96 93 92 93 92 88 85 84 83 87 88 90 91 90 85 83 82 76 79 86 82
16 23 44 45 45 40 40 41 45 44 40 39 36 31 33 45 59 70 78 84 90 92 94 93 93 95 95 93 92 89 87 90 91 91 91 90 85 80 79 80 82 81 78
15 28 49 49 48 38 37 41 42 45 46 44 44 39 36 38 43 54 64 74 82 87 90 90 95 97 99 98 97 93 90 92 92 93 91 85 83 79 85 85 79 75 71
25 47 42 36 31 38 45 48 48 46 49 45 43 45 44 42 44 48 51 59 68 78 84 87 89 91 94 97 98 97 94 95 94 92 91 90 86 85 82 80 75 73 66
43 32 28 29 42 49 58 58 56 57 56 57 55 50 48 47 46 48 51 55 62 67 74 79 84 89 91 96 95 96 96 95 92 92 91 89 85 77 76 73 71 65 65
30 34 39 46 55 62 65 66 67 66 65 63 56 54 57 55 51 51 52 53 58 64 69 75 81 85 92 97 96 95 95 94 93 94 90 83 80 75 70 65 66 64 70
38 46 52 59 63 68 72 75 78 79 73 66 63 60 58 61 59 58 58 57 57 61 69 77 82 88 90 94 94 93 92 93 92 91 85 78 76 73 71 70 68 65 64
46 54 60 68 72 74 74 80 84 85 84 80 71 65 67 70 67 66 66 63 61 63 68 70 78 83 85 87 85 84 85 87 83 81 78 77 76 76 75 71 70 70 71
49 54 64 70 78 82 85 91 88 88 88 89 89 79 68 72 76 75 73 71 69 69 68 71 72 81 86 83 81 77 80 83 85 84 80 77 75 73 73 73 71 66 65
60 71 77 81 84 87 92 96 97 95 91 93 93 93 86 77 77 78 79 78 73 77 71 75 75 74 80 79 81 79 81 84 83 79 80 79 76 73 73 74 70 67 66
69 76 85 90 92 93 95 98 100 100 101 95 95 97 95 90 81 80 78 80 81 79 80 76 77 81 77 79 79 78 79 81 79 80 80 80 79 76 78 72 69 63 53
88 89 93 96 97 97 96 100 104 105 103 104 106 104 101 97 92 85 82 80 83 82 81 84 83 83 83 82 82 84 84 81 81 84 82 79 77 77 75 71 63 58 56
87 91 96 100 95 91 89 95 100 103 109 112 110 109 105 99 98 94 88 84 81 88 87 84 90 91 90 87 87 88 83 81 81 82 77 70 71 71 68 64 64 65 65
80 88 93 98 102 94 88 87 94 97 103 109 111 110 108 106 99 96 93 88 85 84 89 90 92 92 93 94 91 90 87 86 82 75 66 64 67 69 67 66 68 68 66
87 87 86 89 94 92 90 87 84 88 94 100 105 107 106 103 103 101 99 96 92 83 85 90 89 89 94 97 90 91 94 91 85 76 69 69 71 71 68 68 68 67 67
79 79 79 79 81 81 81 77 73 77 85 94 97 101 103 102 102 101 105 95 95 89 84 81 79 86 89 83 84 82 80 87 83 81 86 87 87 85 83 82 76 71 67
Wind_Direction_500mb
251 256 259 248 244 248 255 251 236 234 236 236 232 235 237 240 243 246 249 253 249 247 243 243 244 242 243 245 245 246 245 244 241 240 250 256 258 264 268 267 264 255 251
253 250 255 247 240 245 254 257 250 242 238 241 241 241 241 244 247 247 250 244 246 250 246 245 245 244 243 244 244 244 245 246 240 237 252 263 269 270 266 256 245 247 243
257 249 242 244 245 242 248 253 255 251 246 246 245 244 245 246 245 246 246 249 249 249 250 247 247 246 245 245 247 249 247 248 244 239 237 232 243 268 264 255 253 249 254
257 249 249 249 251 254 252 252 256 254 251 248 248 248 246 248 253 250 249 249 252 252 254 252 248 248 246 246 248 249 250 249 248 244 240 248 255 262 287 282 245 243 249
263 257 251 253 256 258 256 254 257 256 252 247 247 252 251 254 258 256 254 254 253 251 252 252 253 250 248 247 248 248 247 248 248 249 249 250 254 256 253 273 273 271 275
132 176 212 241 238 236 245 255 251 254 254 251 251 251 254 255 258 254 254 255 255 255 251 250 251 252 251 250 249 251 251 250 251 252 252 251 251 252 250 247 267 277 288
89 83 72 53 297 271 266 257 253 254 256 257 254 253 254 257 260 261 260 258 257 255 256 252 251 250 251 252 252 251 251 251 251 252 254 256 257 258 263 263 268 270 279
86 71 64 63 52 42 37 14 280 260 252 253 255 257 257 256 258 260 261 261 261 263 263 261 258 258 255 255 255 253 253 252 253 255 255 257 260 260 261 262 265 264 269
83 75 65 47 36 27 18 10 9 0 296 263 255 255 256 257 257 260 259 261 263 264 263 263 263 261 259 257 255 255 254 254 254 254 255 257 259 262 262 262 261 262 260
76 49 33 24 20 12 4 1 350 334 334 320 270 257 256 257 257 260 260 261 265 265 264 263 263 263 261 260 257 255 255 254 254 255 256 257 258 259 262 262 261 258 257
64 34 22 16 11 11 7 356 349 344 335 331 320 279 264 260 260 258 259 260 262 263 262 263 262 262 261 260 257 255 254 253 254 254 255 256 257 258 260 261 259 256 256
41 2 6 3 3 8 8 3 357 351 348 343 329 313 287 270 262 260 260 262 262 262 261 260 255 256 256 256 255 254 252 251 251 251 252 254 255 256 260 257 256 256 255
11 2 354 357 1 7 359 351 347 346 347 342 337 328 311 298 283 273 266 263 263 263 262 260 257 255 252 254 257 256 255 254 253 252 253 256 254 256 255 252 255 254 257
1 354 4 11 11 359 356 356 352 349 343 339 337 332 327 316 299 292 279 268 264 262 260 258 256 255 256 254 252 252 252 251 252 251 252 253 253 255 255 253 255 256 254
7 25 30 17 3 356 350 348 348 343 343 335 334 329 322 316 308 303 295 285 275 267 263 260 256 254 252 253 252 252 253 253 253 253 253 253 254 256 256 255 253 258 252
12 22 11 4 358 355 350 344 342 341 343 341 330 328 326 313 305 304 302 290 281 276 266 261 256 254 252 252 252 252 252 254 252 253 255 256 254 253 253 257 254 249 261
12 3 357 351 348 346 343 339 337 334 335 338 335 325 320 322 311 300 296 294 288 281 274 261 257 256 254 253 253 253 255 254 254 253 255 254 254 254 253 255 250 250 248
355 347 343 339 339 338 335 330 330 331 331 329 328 329 320 316 320 312 301 296 292 286 281 274 259 258 257 255 254 253 252 253 254 253 253 253 252 251 251 249 245 250 246
341 334 332 332 330 331 331 328 326 324 327 325 322 321 322 316 311 312 313 303 295 288 281 278 272 259 258 256 255 251 248 248 247 250 250 248 249 245 246 245 242 242 243
333 331 329 328 326 324 324 323 323 322 321 320 318 318 316 313 310 306 306 310 300 289 283 277 273 266 260 256 252 249 247 247 247 246 245 244 241 242 239 239 242 238 240
324 322 321 321 320 320 319 317 317 318 317 314 311 311 312 309 304 302 299 300 304 295 284 276 272 271 260 257 254 250 246 244 243 241 240 239 239 236 240 239 238 237 234
321 320 316 315 316 316 315 312 311 312 310 309 307 306 307 306 304 301 296 295 295 296 290 281 275 268 265 259 253 251 249 246 245 245 244 241 241 240 236 234 228 224 221
321 319 317 315 315 315 315 311 308 307 305 303 302 302 302 303 302 300 297 292 290 290 290 286 279 274 268 261 257 251 246 245 243 244 246 243 240 235 231 225 222 219 219
320 320 318 315 312 316 314 311 309 308 304 301 300 300 300 300 300 299 296 293 287 285 285 286 284 279 273 266 255 251 247 241 237 237 237 239 234 229 226 219 219 220 219
323 324 322 319 315 315 313 314 314 309 304 301 301 300 300 300 298 296 294 293 288 285 282 279 279 277 274 271 267 256 248 244 238 229 227 222 219 218 214 211 214 212 212
325 324 323 322 322 322 321 323 318 313 308 304 303 303 303 301 299 300 297 292 290 289 287 281 273 271 271 270 270 266 256 243 237 223 222 218 215 214 213 210 207 209 211
Wind_Speed_850mb
50 53 41 68 58 51 50 56 61 68 67 69 67 75 79 76 73 70 67 66 66 62 60 60 61 59 60 57 53 50 49 49 45 43 40 43 48 53 53 45 41 33 29
56 54 58 54 66 61 58 59 64 68 68 69 67 71 77 80 77 73 71 70 72 67 66 65 66 67 65 63 61 58 57 55 52 53 42 40 42 51 42 38 32 27 29
66 64 61 72 67 70 66 68 65 71 76 74 69 69 71 79 82 84 84 83 76 73 68 68 68 70 70 70 67 65 64 63 58 59 53 21 28 20 25 28 29 29 34
99 91 79 72 69 75 74 71 67 71 74 79 80 80 78 79 80 87 90 90 85 81 78 74 73 72 71 74 72 71 71 68 68 62 67 67 61 29 21 18 24 32 37
67 72 78 74 71 72 69 74 73 73 72 82 85 87 87 83 78 82 86 86 86 85 84 82 80 80 79 79 76 75 76 76 75 75 73 71 71 68 64 63 55 54 53
8 4 12 10 21 21 21 50 78 76 74 76 81 88 92 88 87 88 90 88 84 83 84 86 85 84 86 87 85 81 80 79 78 80 77 78 76 75 74 74 75 68 63
38 34 20 10 5 13 16 21 29 49 69 76 80 88 93 95 94 94 94 92 89 89 87 84 85 86 87 88 89 91 90 87 87 84 85 78 81 77 73 65 69 70 66
41 41 32 30 33 25 21 14 17 37 48 61 76 83 90 95 100 100 99 97 95 92 89 86 83 83 83 84 87 91 94 94 93 91 89 87 84 81 77 79 74 70 71
32 33 34 37 41 36 27 23 20 22 25 44 59 70 79 86 97 101 103 101 99 97 93 91 89 84 81 80 81 85 90 95 96 96 94 93 89 86 82 81 79 81 59
27 26 34 41 41 37 34 30 32 30 29 28 41 56 66 75 82 89 99 102 101 98 94 92 90 86 85 82 80 81 82 89 92 94 94 93 89 86 83 78 75 82 87
14 23 40 41 44 36 36 35 36 35 30 29 29 35 51 60 66 78 86 92 94 98 96 93 92 93 92 88 85 84 83 87 88 90 91 90 85 83 82 76 79 86 82
16 23 44 45 45 40 40 41 45 44 40 39 36 31 33 45 59 70 78 84 90 92 94 93 93 95 95 93 92 89 87 90 91 91 91 90 85 80 79 80 82 81 78
15 28 49 49 48 38 37 41 42 45 46 44 44 39 36 38 43 54 64 74 82 87 90 90 95 97 99 98 97 93 90 92 92 93 91 85 83 79 85 85 79 75 71
25 47 42 36 31 38 45 48 48 46 49 45 43 45 44 42 44 48 51 59 68 78 84 87 89 91 94 97 98 97 94 95 94 92 91 90 86 85 82 80 75 73 66
43 32 28 29 42 49 58 58 56 57 56 57 55 50 48 47 46 48 51 55 62 67 74 79 84 89 91 96 95 96 96 95 92 92 91 89 85 77 76 73 71 65 65
30 34 39 46 55 62 65 66 67 66 65 63 56 54 57 55 51 51 52 53 58 64 69 75 81 85 92 97 96 95 95 94 93 94 90 83 80 75 70 65 66 64 70
38 46 52 59 63 68 72 75 78 79 73 66 63 60 58 61 59 58 58 57 57 61 69 77 82 88 90 94 94 93 92 93 92 91 85 78 76 73 71 70 68 65 64
46 54 60 68 72 74 74 80 84 85 84 80 71 65 67 70 67 66 66 63 61 63 68 70 78 83 85 87 85 84 85 87 83 81 78 77 76 76 75 71 70 70 71
49 54 64 70 78 82 85 91 88 88 88 89 89 79 68 72 76 75 73 71 69 69 68 71 72 81 86 83 81 77 80 83 85 84 80 77 75 73 73 73 71 66 65
60 71 77 81 84 87 92 96 97 95 91 93 93 93 86 77 77 78 79 78 73 77 71 75 75 74 80 79 81 79 81 84 83 79 80 79 76 73 73 74 70 67 66
69 76 85 90 92 93 95 98 100 100 101 95 95 97 95 90 81 80 78 80 81 79 80 76 77 81 77 79 79 78 79 81 79 80 80 80 79 76 78 72 69 63 53
88 89 93 96 97 97 96 100 104 105 103 104 106 104 101 97 92 85 82 80 83 82 81 84 83 83 83 82 82 84 84 81 81 84 82 79 77 77 75 71 63 58 56
87 91 96 100 95 91 89 95 100 103 109 112 110 109 105 99 98 94 88 84 81 88 87 84 90 91 90 87 87 88 83 81 81 82 77 70 71 71 68 64 64 65 65
80 88 93 98 102 94 88 87 94 97 103 109 111 110 108 106 99 96 93 88 85 84 89 90 92 92 93 94 91 90 87 86 82 75 66 64 67 69 67 66 68 68 66
87 87 86 89 94 92 90 87 84 88 94 100 105 107 106 103 103 101 99 96 92 83 85 90 89 89 94 97 90 91 94 91 85 76 69 69 71 71 68 68 68 67 67
79 79 79 79 81 81 81 77 73 77 85 94 97 101 103 102 102 101 105 95 95 89 84 81 79 86 89 83 84 82 80 87 83 81 86 87 87 85 83 82 76 71 67
Wind_Direction_850mb
251 256 259 248 244 248 255 251 236 234 236 236 232 235 237 240 243 246 249 253 249 247 243 243 244 242 243 245 245 246 245 244 241 240 250 256 258 264 268 267 264 255 251
253 250 255 247 240 245 254 257 250 242 238 241 241 241 241 244 247 247 250 244 246 250 246 245 245 244 243 244 244 244 245 246 240 237 252 263 269 270 266 256 245 247 243
257 249 242 244 245 242 248 253 255 251 246 246 245 244 245 246 245 246 246 249 249 249 250 247 247 246 245 245 247 249 247 248 244 239 237 232 243 268 264 255 253 249 254
257 249 249 249 251 254 252 252 256 254 251 248 248 248 246 248 253 250 249 249 252 252 254 252 248 248 246 246 248 249 250 249 248 244 240 248 255 262 287 282 245 243 249
263 257 251 253 256 258 256 254 257 256 252 247 247 252 251 254 258 256 254 254 253 251 252 252 253 250 248 247 248 248 247 248 248 249 249 250 254 256 253 273 273 271 275
132 176 212 241 238 236 245 255 251 254 254 251 251 251 254 255 258 254 254 255 255 255 251 250 251 252 251 250 249 251 251 250 251 252 252 251 251 252 250 247 267 277 288
89 83 72 53 297 271 266 257 253 254 256 257 254 253 254 257 260 261 260 258 257 255 256 252 251 250 251 252 252 251 251 251 251 252 254 256 257 258 263 263 268 270 279
86 71 64 63 52 42 37 14 280 260 252 253 255 257 257 256 258 260 261 261 261 263 263 261 258 258 255 255 255 253 253 252 253 255 255 257 260 260 261 262 265 264 269
83 75 65 47 36 27 18 10 9 0 296 263 255 255 256 257 257 260 259 261 263 264 263 263 263 261 259 257 255 255 254 254 254 254 255 257 259 262 262 262 261 262 260
76 49 33 24 20 12 4 1 350 334 334 320 270 257 256 257 257 260 260 261 265 265 264 263 263 263 261 260 257 255 255 254 254 255 256 257 258 259 262 262 261 258 257
64 34 22 16 11 11 7 356 349 344 335 331 320 279 264 260 260 258 259 260 262 263 262 263 262 262 261 260 257 255 254 253 254 254 255 256 257 258 260 261 259 256 256
41 2 6 3 3 8 8 3 357 351 348 343 329 313 287 270 262 260 260 262 262 262 261 260 255 256 256 256 255 254 252 251 251 251 252 254 255 256 260 257 256 256 255
11 2 354 357 1 7 359 351 347 346 347 342 337 328 311 298 283 273 266 263 263 263 262 260 257 255 252 254 257 256 255 254 253 252 253 256 254 256 255 252 255 254 257
1 354 4 11 11 359 356 356 352 349 343 339 337 332 327 316 299 292 279 268 264 262 260 258 256 255 256 254 252 252 252 251 252 251 252 253 253 255 255 253 255 256 254
7 25 30 17 3 356 350 348 348 343 343 335 334 329 322 316 308 303 295 285 275 267 263 260 256 254 252 253 252 252 253 253 253 253 253 253 254 256 256 255 253 258 252
12 22 11 4 358 355 350 344 342 341 343 341 330 328 326 313 305 304 302 290 281 276 266 261 256 254 252 252 252 252 252 254 252 253 255 256 254 253 253 257 254 249 261
12 3 357 351 348 346 343 339 337 334 335 338 335 325 320 322 311 300 296 294 288 281 274 261 257 256 254 253 253 253 255 254 254 253 255 254 254 254 253 255 250 250 248
355 347 343 339 339 338 335 330 330 331 331 329 328 329 320 316 320 312 301 296 292 286 281 274 259 258 257 255 254 253 252 253 254 253 253 253 252 251 251 249 245 250 246
341 334 332 332 330 331 331 328 326 324 327 325 322 321 322 316 311 312 313 303 295 288 281 278 272 259 258 256 255 251 248 248 247 250 250 248 249 245 246 245 242 242 243
333 331 329 328 326 324 324 323 323 322 321 320 318 318 316 313 310 306 306 310 300 289 283 277 273 266 260 256 252 249 247 247 247 246 245 244 241 242 239 239 242 238 240
324 322 321 321 320 320 319 317 317 318 317 314 311 311 312 309 304 302 299 300 304 295 284 276 272 271 260 257 254 250 246 244 243 241 240 239 239 236 240 239 238 237 234
321 320 316 315 316 316 315 312 311 312 310 309 307 306 307 306 304 301 296 295 295 296 290 281 275 268 265 259 253 251 249 246 245 245 244 241 241 240 236 234 228 224 221
321 319 317 315 315 315 315 311 308 307 305 303 302 302 302 303 302 300 297 292 290 290 290 286 279 274 268 261 257 251 246 245 243 244 246 243 240 235 231 225 222 219 219
320 320 318 315 312 316 314 311 309 308 304 301 300 300 300 300 300 299 296 293 287 285 285 286 284 279 273 266 255 251 247 241 237 237 237 239 234 229 226 219 219 220 219
323 324 322 319 315 315 313 314 314 309 304 301 301 300 300 300 298 296 294 293 288 285 282 279 279 277 274 271 267 256 248 244 238 229 227 222 219 218 214 211 214 212 212
325 324 323 322 322 322 321 323 318 313 308 304 303 303 303 301 299 300 297 292 290 289 287 281 273 271 271 270 270 266 256 243 237 223 222 218 215 214 213 210 207 209 211